Mason, MI

9:53 PM EST on December 14, 2017 (GMT -0500)
Mason Jewett

Weather History for KTEW - January, 2013

Change the Weather History Date:

Saturday, January 19, 2013

  Actual Average (KLAN) Record (KLAN)
Temperature  
Mean Temperature 41 °F -  
Max Temperature 46 °F 29 °F 53 °F (1949)
Min Temperature 36 °F 11 °F -20 °F (1892)
Degree Days  
Heating Degree Days 24    
Moisture  
Dew Point 30 °F    
Average Humidity 64    
Maximum Humidity 71    
Minimum Humidity 52    
Precipitation  
Precipitation 0.00 in - - ()
Sea Level Pressure  
Sea Level Pressure 29.78 in    
Wind  
Wind Speed 12 mph (SW)    
Max Wind Speed 25 mph    
Max Gust Speed 43 mph    
Visibility 10 miles    
Events      
Averages and records for this station are not official NWS values.
T = Trace of Precipitation, MM = Missing Value Source: NWS Daily Summary

Daily Weather History Graph

Daily Weather History Graph

Search for Another Location

Airport or City:

Trip Planner

Search our weather history database for the weather conditions in past years. The results will help you decide how hot, cold, wet, or windy it might be!

Date:

Astronomy

Jan. 19, 2013 Rise Set
Actual Time 8:02 AM EST 5:34 PM EST
Civil Twilight 7:31 AM EST 6:05 PM EST
Nautical Twilight 6:57 AM EST 6:40 PM EST
Astronomical Twilight 6:23 AM EST 7:13 PM EST
Moon 12:02 PM EST (1/19) 1:34 AM EST (1/19)
Length of Visible Light 10h 34m
Length of Day
9h 32m
First Quarter, 57% of the Moon is Illuminated
Jan 19
First Quarter
Jan 26
Full
Feb 3
Last Quarter
Feb 10
New
Feb 17
First Quarter

Hourly Weather History & Observations

Time (EST) Temp. Windchill Dew Point Humidity Pressure Visibility Wind Dir Wind Speed Gust Speed Precip Events Conditions
12:15 AM 36.5 °F 28.7 °F 23.0 °F 58% 29.91 in 10.0 mi SW 11.5 mph 20.7 mph N/A   Clear
12:35 AM 36.0 °F 29.0 °F 23.5 °F 61% 29.91 in 10.0 mi SW 9.2 mph 18.4 mph N/A   Clear
12:54 AM 36.1 °F 28.7 °F 23.9 °F 61% 29.90 in 10.0 mi SW 10.4 mph 17.3 mph N/A   Clear
1:15 AM 36.5 °F 28.2 °F 24.4 °F 62% 29.89 in 10.0 mi SW 12.7 mph 19.6 mph N/A   Clear
1:35 AM 37.4 °F 30.3 °F 24.8 °F 60% 29.89 in 10.0 mi SW 10.4 mph 21.9 mph N/A   Clear
1:54 AM 37.6 °F 29.6 °F 25.2 °F 61% 29.89 in 10.0 mi SW 12.7 mph 20.7 mph N/A   Clear
2:15 AM 37.4 °F 28.5 °F 25.3 °F 62% 29.89 in 10.0 mi SW 15.0 mph 21.9 mph N/A   Clear
2:34 AM 37.8 °F 28.6 °F 25.5 °F 61% 29.89 in 10.0 mi SW 16.1 mph 23.0 mph N/A   Clear
2:54 AM 37.6 °F 30.0 °F 25.7 °F 62% 29.89 in 10.0 mi SW 11.5 mph 21.9 mph N/A   Clear
3:15 AM 37.8 °F 29.8 °F 25.7 °F 62% 29.89 in 10.0 mi SW 12.7 mph 21.9 mph N/A   Clear
3:34 AM 37.8 °F 30.2 °F 25.9 °F 62% 29.89 in 10.0 mi SW 11.5 mph 24.2 mph N/A   Clear
3:54 AM 37.8 °F 30.2 °F 26.4 °F 64% 29.89 in 10.0 mi SW 11.5 mph 19.6 mph N/A   Clear
4:15 AM 37.9 °F 30.5 °F 26.4 °F 63% 29.88 in 10.0 mi SW 11.5 mph 23.0 mph N/A   Clear
4:35 AM 37.8 °F 30.2 °F 26.6 °F 64% 29.88 in 10.0 mi SW 11.5 mph 19.6 mph N/A   Clear
4:54 AM 38.1 °F 31.2 °F 27.0 °F 64% 29.88 in 10.0 mi SW 10.4 mph 23.0 mph N/A   Clear
5:15 AM 38.3 °F 30.9 °F 27.1 °F 64% 29.88 in 10.0 mi WSW 11.5 mph 20.7 mph N/A   Clear
5:34 AM 38.3 °F 30.1 °F 27.3 °F 65% 29.88 in 10.0 mi SW 13.8 mph 23.0 mph N/A   Clear
5:55 AM 38.3 °F 30.9 °F 27.5 °F 65% 29.89 in 10.0 mi SW 11.5 mph 21.9 mph N/A   Clear
6:15 AM 38.3 °F 31.9 °F 27.5 °F 65% 29.89 in 10.0 mi SW 9.2 mph 19.6 mph N/A   Clear
6:34 AM 37.8 °F 30.7 °F 27.5 °F 67% 29.89 in 10.0 mi SW 10.4 mph 18.4 mph N/A   Clear
6:55 AM 37.8 °F 30.7 °F 27.5 °F 67% 29.89 in 10.0 mi SW 10.4 mph 18.4 mph N/A   Clear
7:15 AM 37.6 °F 30.0 °F 28.0 °F 68% 29.89 in 10.0 mi SW 11.5 mph 16.1 mph N/A   Clear
7:34 AM 37.4 °F 30.8 °F 28.0 °F 69% 29.89 in 10.0 mi SW 9.2 mph - N/A   Clear
7:55 AM 37.4 °F 30.8 °F 28.2 °F 69% 29.89 in 10.0 mi SW 9.2 mph - N/A   Clear
8:15 AM 37.2 °F 30.6 °F 28.4 °F 70% 29.89 in 10.0 mi SSW 9.2 mph - N/A   Scattered Clouds
8:34 AM 37.0 °F 31.0 °F 28.4 °F 71% 29.89 in 10.0 mi SSW 8.1 mph - N/A   Scattered Clouds
8:55 AM 37.4 °F 29.8 °F 28.4 °F 70% 29.90 in 10.0 mi SW 11.5 mph 19.6 mph N/A   Scattered Clouds
9:14 AM 37.9 °F 30.5 °F 28.4 °F 69% 29.90 in 10.0 mi SW 11.5 mph 16.1 mph N/A   Mostly Cloudy
9:35 AM 38.5 °F 31.6 °F 28.6 °F 68% 29.90 in 10.0 mi SW 10.4 mph 18.4 mph N/A   Mostly Cloudy
9:55 AM 39.6 °F 31.7 °F 28.9 °F 66% 29.89 in 10.0 mi SW 13.8 mph 21.9 mph N/A   Mostly Cloudy
10:14 AM 40.8 °F 34.5 °F 29.1 °F 63% 29.90 in 10.0 mi SW 10.4 mph 23.0 mph N/A   Scattered Clouds
10:35 AM 41.4 °F 34.7 °F 29.3 °F 62% 29.90 in 10.0 mi SW 11.5 mph 21.9 mph N/A   Scattered Clouds
10:55 AM 41.9 °F 35.0 °F 29.3 °F 61% 29.89 in 10.0 mi SW 12.7 mph 23.0 mph N/A   Scattered Clouds
11:14 AM 41.2 °F 35.5 °F 29.5 °F 63% 29.89 in 10.0 mi SW 9.2 mph 17.3 mph N/A   Clear
11:35 AM 41.2 °F 35.0 °F 29.7 °F 64% 29.87 in 10.0 mi SW 10.4 mph 19.6 mph N/A   Clear
11:55 AM 41.4 °F 35.7 °F 29.8 °F 64% 29.85 in 10.0 mi SW 9.2 mph - N/A   Clear
12:14 PM 42.6 °F 36.8 °F 30.2 °F 61% 29.83 in 10.0 mi SW 10.4 mph - N/A   Clear
12:35 PM 42.8 °F 36.6 °F 30.2 °F 61% 29.81 in 10.0 mi SW 11.5 mph 18.4 mph N/A   Clear
12:55 PM 44.1 °F 38.1 °F 30.7 °F 59% 29.80 in 10.0 mi SW 11.5 mph 17.3 mph N/A   Clear
1:14 PM 43.9 °F 38.8 °F 30.7 °F 60% 29.79 in 10.0 mi SSW 9.2 mph 18.4 mph N/A   Clear
1:35 PM 44.6 °F 38.4 °F 30.9 °F 59% 29.77 in 10.0 mi SSW 12.7 mph 19.6 mph N/A   Clear
1:55 PM 45.5 °F 40.8 °F 31.5 °F 58% 29.76 in 10.0 mi SSW 9.2 mph 19.6 mph N/A   Clear
2:35 PM 46.0 °F 40.2 °F 31.1 °F 56% 29.74 in 10.0 mi SW 12.7 mph 23.0 mph N/A   Clear
2:55 PM 45.5 °F 40.3 °F 31.3 °F 58% 29.73 in 10.0 mi SSW 10.4 mph 20.7 mph N/A   Clear
3:14 PM 44.8 °F 38.7 °F 31.1 °F 59% 29.72 in 10.0 mi SW 12.7 mph 24.2 mph N/A   Scattered Clouds
3:35 PM 44.6 °F 38.8 °F 31.8 °F 61% 29.72 in 10.0 mi SSW 11.5 mph 17.3 mph N/A   Scattered Clouds
3:55 PM 44.6 °F 39.2 °F 31.6 °F 60% 29.72 in 10.0 mi SW 10.4 mph - N/A   Mostly Cloudy
4:14 PM 44.8 °F 39.0 °F 31.8 °F 60% 29.72 in 10.0 mi SW 11.5 mph 18.4 mph N/A   Overcast
4:35 PM 44.6 °F 39.7 °F 32.0 °F 61% 29.72 in 10.0 mi SSW 9.2 mph 20.7 mph N/A   Overcast
4:55 PM 44.2 °F 38.0 °F 32.0 °F 62% 29.69 in 10.0 mi SSW 12.7 mph 24.2 mph N/A   Overcast
5:14 PM 44.4 °F 38.6 °F 32.0 °F 62% 29.68 in 10.0 mi SW 11.5 mph 21.9 mph N/A   Overcast
5:35 PM 44.1 °F 38.6 °F 32.0 °F 63% 29.66 in 10.0 mi SSW 10.4 mph 20.7 mph N/A   Mostly Cloudy
5:55 PM 43.9 °F 38.3 °F 32.0 °F 63% 29.65 in 10.0 mi South 10.4 mph 20.7 mph N/A   Scattered Clouds
6:15 PM 44.1 °F 36.5 °F 32.2 °F 63% 29.68 in 10.0 mi SW 17.3 mph 25.3 mph N/A   Mostly Cloudy
6:35 PM 44.2 °F 37.0 °F 32.4 °F 63% 29.69 in 10.0 mi SW 16.1 mph 23.0 mph N/A   Mostly Cloudy
6:55 PM 44.2 °F 37.3 °F 32.9 °F 64% 29.67 in 10.0 mi SW 15.0 mph 28.8 mph N/A   Scattered Clouds
7:15 PM 43.7 °F 37.3 °F 32.9 °F 66% 29.65 in 10.0 mi SSW 12.7 mph 24.2 mph N/A   Scattered Clouds
7:35 PM 43.7 °F 36.0 °F 32.9 °F 66% 29.65 in 10.0 mi SW 17.3 mph 25.3 mph N/A   Scattered Clouds
7:55 PM 43.7 °F 36.3 °F 32.9 °F 66% 29.66 in 10.0 mi SW 16.1 mph 25.3 mph N/A   Clear
8:15 PM 43.3 °F 35.5 °F 33.1 °F 67% 29.64 in 10.0 mi SW 17.3 mph 26.5 mph N/A   Scattered Clouds
8:35 PM 43.2 °F 35.9 °F 33.3 °F 68% 29.62 in 10.0 mi SW 15.0 mph 25.3 mph N/A   Scattered Clouds
8:55 PM 42.6 °F 35.2 °F 33.3 °F 69% 29.61 in 10.0 mi SW 15.0 mph 24.2 mph N/A   Scattered Clouds
9:15 PM 42.8 °F 35.8 °F 33.4 °F 70% 29.60 in 10.0 mi SW 13.8 mph 24.2 mph N/A   Scattered Clouds
9:35 PM 42.8 °F 34.8 °F 33.8 °F 70% 29.61 in 10.0 mi SW 17.3 mph 24.2 mph N/A   Mostly Cloudy
9:54 PM 43.0 °F 36.4 °F 33.8 °F 70% 29.60 in 10.0 mi WSW 12.7 mph 24.2 mph N/A   Mostly Cloudy
10:15 PM 42.8 °F 35.8 °F 33.8 °F 70% 29.59 in 10.0 mi WSW 13.8 mph 25.3 mph N/A   Overcast
10:35 PM 43.0 °F 35.4 °F 33.8 °F 70% 29.59 in 10.0 mi WSW 16.1 mph 23.0 mph N/A   Overcast
10:55 PM 43.3 °F 36.8 °F 33.8 °F 69% 29.58 in 10.0 mi SW 12.7 mph 25.3 mph N/A   Overcast
11:15 PM 43.3 °F 35.5 °F 33.8 °F 69% 29.57 in 10.0 mi SW 17.3 mph 26.5 mph N/A   Overcast
11:35 PM 43.7 °F 37.3 °F 32.7 °F 65% 29.58 in 10.0 mi West 12.7 mph 29.9 mph N/A   Overcast
11:54 PM 43.3 °F 33.8 °F 26.6 °F 52% 29.57 in 10.0 mi West 25.3 mph 42.6 mph N/A   Overcast